Regional Weather Roundup
Issued by NWS Little Rock, AR

Home | Current Version | Previous Version | Graphics & Text | Print | Product List | Glossary On
Versions: 1 2 3 4 5 6 7 8 9 10 11 12 13 14 15 16 17 18 19 20 21 22 23 24 25 26 27 28 29 30 31 32
000
ASUS44 KLZK 182305
RWRLZK

WEATHER ROUNDUP FOR ARKANSAS
NATIONAL WEATHER SERVICE LITTLE ROCK AR
500 PM CST THU JAN 18 2018

NOTE: "FAIR" INDICATES FEW OR NO CLOUDS BELOW 12,000 FEET WITH NO
SIGNIFICANT WEATHER AND/OR OBSTRUCTIONS TO VISIBILITY.

ARZ001-003-010-029-190000-
NORTHWEST ARKANSAS

CITY           SKY/WX    TMP DP  RH WIND       PRES   REMARKS
FAYETTEVILLE   CLEAR     38  10  31 S10       30.25F
FORT SMITH     CLEAR     45   5  19 SW8       30.30F
HARRISON       CLEAR     44  10  25 SW5       30.23F
BENTONVILLE    CLEAR     40  12  32 S9        30.25F
ROGERS         CLEAR     40  11  30 SW12      30.23F
SILOAM SPGS    CLEAR     40  11  30 S12       30.24F
HIGHFILL       CLEAR     39  11  31 S10       30.23F
SPRINGDALE     CLEAR     41   9  26 S12G17    30.25F
$$

ARZ004-005-016-190000-
NORTH CENTRAL ARKANSAS

CITY           SKY/WX    TMP DP  RH WIND       PRES   REMARKS
BATESVILLE     CLEAR     40   8  26 S6        30.32F
FLIPPIN        CLEAR     45   6  20 S7        30.27S
MTN HOME       CLEAR     42  10  27 SW5       30.25F
$$

ARZ040-041-190000-
WEST CENTRAL ARKANSAS

CITY           SKY/WX    TMP DP  RH WIND       PRES   REMARKS
MENA           CLEAR     43   9  24 S3        30.33S
MOUNT IDA      CLEAR     42   8  24 SW3       30.31F
$$

ARZ009-017-025-026-028-190000-
NORTHEAST ARKANSAS

CITY           SKY/WX    TMP DP  RH WIND       PRES   REMARKS
JONESBORO      FAIR      32  19  58 S15       30.37F WCI  22
NEWPORT        FAIR      32  20  61 S16       30.35F WCI  21
WALNUT RIDGE   FAIR      31  24  75 S13       30.34F WCI  21
BLYTHEVILLE    FAIR      28  19  69 SW9       30.38F WCI  19
$$

ARZ022-023-033-042-044-190000-
CENTRAL ARKANSAS

CITY           SKY/WX    TMP DP  RH WIND       PRES   REMARKS
LITTLE ROCK    CLEAR     38  10  31 S9        30.37F
JACKSONVILLE   CLEAR     37  19  46 SE7       30.36F
SEARCY         FAIR      34  19  54 S9        30.38F WCI  27
HOT SPRINGS    CLEAR     41  11  29 S6        30.36F
RUSSELLVILLE   CLEAR     42   7  23 SE6       30.31F
CLINTON        FAIR      41   7  24 S7        30.33F
$$

ARZ036-190000-
EAST ARKANSAS

CITY           SKY/WX    TMP DP  RH WIND       PRES   REMARKS
WEST MEMPHIS   FAIR      29  21  72 S12       30.40F WCI  19
$$

ARZ050-053-066-070-073-190000-
SOUTHWEST ARKANSAS

CITY           SKY/WX    TMP DP  RH WIND       PRES   REMARKS
ARKADELPHIA    FAIR      38  19  46 S5        30.40F
CAMDEN         FAIR      41  12  30 S6        30.41F
TEXARKANA      CLEAR     39  17  41 E3        30.38F
EL DORADO      FAIR      40  17  39 S6        30.41F
DE QUEEN       CLEAR     42   9  25 S8        30.35F
$$

ARZ056-057-069-190000-
SOUTHEAST ARKANSAS

CITY           SKY/WX    TMP DP  RH WIND       PRES   REMARKS
PINE BLUFF     FAIR      35  26  69 SE10      30.40F WCI  27
STUTTGART      FAIR      33  22  63 SE7       30.40F WCI  27
MONTICELLO     FAIR      40  11  30 SW6       30.41S

$$






USA.gov is the U.S. government's official web portal to all federal, state and local government web resources and services.